Zurück zum Katalog

COSMOS 726

AktivMilitärPO
NORAD 7736·PAYLOAD·🇷🇺 Russia

Gestartet Apr 11, 1975 von Plesetsk Cosmodrome

Loading…

Nächste Überflüge (nächste 24 Stunden)

TLE

AktuellSource: Space-Track

Epoche: Sep 14, 2026, 10:17 UTC

1 07736U 75028A   26257.42858161  .00000063  00000-0  46695-4 0  9995
2 07736  82.9988 155.9539 0026278 153.2744 206.9775 13.78460326585988

Verfolge COSMOS 726 in Echtzeit mit AllMySat

Download on the App Store